Regional Weather Roundup
Issued by NWS Wakefield, VA

Home | Current Version | Previous Version | Graphics & Text | Print | Product List | Glossary Off
Versions: 1 2 3 4 5 6 7 8 9 10 11 12 13 14 15 16 17 18 19 20 21 22 23 24 25 26 27 28 29 30 31 32 33 34 35 36 37 38 39 40 41 42 43 44 45 46 47 48 49 50

000
ASUS41 KAKQ 160010
RWRAKQ

REGIONAL WEATHER ROUNDUP
NATIONAL WEATHER SERVICE WAKEFIELD VA
800 PM EDT MON SEP 15 2014

Note: "fair" indicates few or no clouds below 12,000 feet with no
significant weather and/or obstructions to visibility. * = Denotes
station may not report precipitation (e.g., rain,snow,etc.),
thunder or fog.

VAZ042-051-052>054-056-160100-
NORTHERN VIRGINIA

CITY           SKY/WX    TMP DP  RH WIND       PRES   REMARKS
WASH NATIONAL  MOCLDY    70  56  61 SE12      30.12R
DULLES         MOCLDY    65  55  70 CALM      30.11R
FORT BELVOIR   PTCLDY    63  60  91 CALM      30.11S
QUANTICO       PTCLDY    70  59  68 S8        30.11S
FREDERICKSBRG* PTCLDY    69  59  71 E5        30.09F
STAFFORD*      PTCLDY    64  62  94 CALM      30.14S
WARRENTON      PTCLDY    65  62  88 CALM      30.10S
CULPEPER*      PTCLDY   N/A N/A N/A CALM      30.12R
MANASSAS*      CLEAR     66  61  82 CALM      30.10S
LEESBURG*      MOCLDY    68  59  73 S3        30.10F
WINCHESTER     CLOUDY    64  54  68 SE3       30.09F
FRONT ROYAL*   PTCLDY    64  55  72 SW3       30.08F
LURAY*         PTCLDY    68  57  68 CALM      30.09F
$$

VAZ048-049-060>072-079>083-160100-
CENTRAL AND SOUTH CENTRAL VIRGINIA...AND NORTH CENTRAL NORTH CAROLINA

CITY           SKY/WX    TMP DP  RH WIND       PRES   REMARKS
RICHMOND       MOCLDY    68  59  73 S5        30.11F
CHESTERFIELD*  PTCLDY    66  54  63 SW3       30.13F
PETERSBURG*    PTCLDY    64  62  91 CALM      30.13S
HANOVER        PTCLDY    65  61  87 S3        30.13S
TAPPAHANNOCK*  MOCLDY    68  59  73 CALM      30.12S
CHARLOTTSVILLE CLOUDY    68  60  75 S8        30.10S
ORANGE*        PTCLDY    66  59  77 CALM      30.12R
LOUISA*        PTCLDY    66  61  82 S3        30.10S
FARMVILLE*     MOCLDY    70  61  73 S3        30.10S
CREWE*         MOCLDY    68  65  90 CALM      30.13R
FORT PICKETT*  MOCLDY    65  63  93 CALM      30.13S
LUNENBURG*     CLOUDY    67  65  93 CALM      30.13R
SOUTH HILL*    PTCLDY    68  66  94 CALM      30.18S
LAWRENCEVILLE* PTCLDY    66  65  96 CALM      30.13S
ROANOKE RAPIDS CLOUDY    68  63  83 CALM      30.14R
RALEIGH        CLOUDY    71  64  78 S5        30.14F
$$

VAZ088>098-160100-
SOUTHEAST VIRGINIA

CITY           SKY/WX    TMP DP  RH WIND       PRES   REMARKS
NORFOLK        CLOUDY    68  57  68 S7        30.13F
VIRGINIA BEACH CLOUDY    69  58  67 CALM      30.13S
NORFOLK NAVAL  CLOUDY    70  58  65 SE8       30.14S
WEST POINT*    NOT AVBL
NEWPORT NEWS   CLOUDY    73  60  63 SE7       30.13R
LANGLEY AFB    CLOUDY    69  60  72 S6        30.12F
FORT EUSTIS    CLOUDY    70  59  68 S9        30.11S
WILLIAMSBURG*  CLOUDY    73  64  73 S8        30.13S
HR EXEC AP*    CLOUDY    66  59  77 SE5       30.15S
FRANKLIN*        N/A     70  63  78 SE7       30.13S
WAKEFIELD      CLOUDY    67  63  87 CALM      30.12S
$$

VAZ020-022-025-037-045-160100-
WEST CENTRAL AND SOUTHWEST VIRGINIA

CITY           SKY/WX    TMP DP  RH WIND       PRES   REMARKS
STAUNTON*      PTCLDY    68  57  67 SE6       30.12S
HOT SPRINGS VA CLOUDY    58  50  74 SW5       30.21S
LYNCHBURG      MOCLDY    68  63  84 S5        30.13S
DANVILLE       CLOUDY    70  65  84 S5        30.13S
SOUTH BOSTON*  NOT AVBL
MARTINSVILLE   CLOUDY    68  64  87 W3        30.17R
ROANOKE        CLOUDY    70  63  78 E9        30.13S
BLACKSBURG     CLOUDY    66  64  94 CALM      30.17S
DUBLIN*        CLOUDY    67  65  93 SW7       30.17R
MARION*        DRIZZLE   67  62  83 CALM      30.19F
HILLSVILLE*    CLOUDY    61  60  97 CALM      30.19S FOG
RICHLANDS*     RAIN      69  63  83 SW3       30.18F
WISE*          CLOUDY    64  63  94 SW3       30.20S
ABINGDON*      CLOUDY    69  65  89 CALM      30.17S
$$

MDZ021>025-VAZ099-100-160100-
SOUTHERN MARYLAND AND THE DELMARVA PENINSULA

CITY           SKY/WX    TMP DP  RH WIND       PRES   REMARKS
PATUXENT RIVER MOCLDY    66  55  67 S6        30.11F
BAY BRIDGE APT   N/A     64  52  63 CALM      30.12S
LEONARDTOWN    MOCLDY    64  55  72 SE3       30.13F
DOVER          PTCLDY    61  54  77 SE1       30.10F
GEORGETOWN     MOCLDY    62  54  74 SE3       30.13F
EASTON         MOCLDY    66  57  72 CALM      30.15F
CAMBRIDGE      MOCLDY    63  57  82 CALM      30.12S
SALISBURY        N/A    N/A N/A N/A MISG        N/A
OCEAN CITY     PTCLDY    58  54  86 CALM      30.13F
WALLOPS ISLAND CLEAR     66  57  72 CALM      30.13S
ACCOMACK*      PTCLDY    63  55  77 S3        30.13S
$$

NCZ012>017-030>032-160100-
EASTERN NORTH CAROLINA

CITY           SKY/WX    TMP DP  RH WIND       PRES   REMARKS
ELIZABETH CITY CLOUDY    69  60  73 E5        30.13S
AHOSKIE*       CLOUDY    69  65  89 CALM      30.14S
EDENTON*       CLOUDY    70  66  88 CALM      30.13R
CURRITUCK*     CLOUDY    69  60  73 CALM      30.14S
KILL DEVIL HLS CLOUDY    70  58  66 E3        30.12S
MANTEO         CLOUDY    70  59  68 E6        30.13S
CAPE HATTERAS  PTCLDY    68  63  84 NE5       30.12R
TARBORO*       CLOUDY    71  66  85 CALM      30.14S
GOLDSBORO      CLOUDY    73  70  92 SW2       30.12R
WASHINGTON     CLOUDY    70  67  90 CALM      30.13S
GREENVILLE     CLOUDY    72  68  88 CALM      30.15R
NEW BERN       CLOUDY    74  69  85 CALM      30.13S
WILMINGTON     MOCLDY    73  68  84 N3        30.12S
$$

VAZ048-160100-
ELSEWHERE

CITY           SKY/WX    TMP DP  RH WIND       PRES   REMARKS
HARRISBURG PA  MOCLDY    66  52  60 SW8       30.08F
BALTIMORE      MOCLDY    64  54  69 CALM      30.11S
ANNAPOLIS      PTCLDY    66  55  67 S6        30.11F
ANDREWS AFB    PTCLDY    64  56  78 SE8       30.11S
WILMINGTON DE  PTCLDY    66  50  56 CALM      30.12F
PHILADELPHIA   MOCLDY    67  51  56 S7        30.12S
WILDWOOD NJ*   PTCLDY    61  52  72 CALM      30.13S
ATLANTIC CITY  CLEAR     58  54  86 SE3       30.13S
HENDERSON NC   MOCLDY    67  64  87 S3        30.14S
GREENSBORO     CLOUDY    71  65  81 SW3       30.14S
ROCKY MOUNT    CLOUDY    70  66  87 CALM      30.14R
FAYETTEVILLE   CLOUDY    74  67  78 CALM      30.13S
CHARLOTTE      CLOUDY    72  66  81 CALM      30.16R
$$

VAZ100-160100-
MARINE

STATION/POSITION TIME  TEMP    WIND        PRES    WAVE   SWELL
                       AIR SEA DIR/SP/G            HT/PER HT/PER
                 (UTC) (F)     (DEG/KT/KT) (MB)    (FT/S) (FT/S)
44066 TX TWR #4  0000   65 74   30/  8/ 10 1020.1F   2/ 7   2/ 7
CAPE MAY NJ      0000   64 76   90/  1/  2 1019.6R
LEWES DE         0000   65 72  160/  4/  5 1019.9R
15NM E FENWICK I 0000   67 72              1020.3F   2/ 7
OCEAN-CITY-INLET 0000   67 72  160/  4/  5 1019.9F
WACHAPREAGUE VA  0000   68 75  180/  4/  6 1020.1F
THOMAS POINT MD  0000   69 75  160/  6/  8 1020.5F
GOOSES REEF MD   0000   70     190/  8/ 10 1020.0S
COVE POINT MD    0000   69     180/  9/ 10 1019.5F
SOLOMONS ISLAND  0000      77                N/A
BISHOPS HEAD MD  0000   70 74  160/  6/  8 1019.4S
PINEY POINT MD   0000          170/ 11/ 14   N/A
POTOMAC MD       0000   70     160/  8/ 10 1019.1F
CAMBRIDGE MD     0000   68 76  170/  3/  4 1019.5R
LEWISETTA VA     0000   68 74  150/  5/  5 1019.5S
RAPPAHANNOCK LGT 0000          160/ 10/ 12 1020.5F
STINGRAY PT      0000   71     170/ 10/ 12   N/A
YORK RVR RNG VA  0000   71     170/ 12/ 14 1019.6S
YORKTOWN VA      0000   70 77  160/  7/  9 1019.8R
JAMESTOWN VA     0000   71     180/  8/ 10   N/A
DOMINION TERM VA 0000   70     150/ 12/ 14 1020.1F
KIPTOPEKE VA     0000      78  150/  6/  8   N/A
CHES BAY BRIDGE  0000   69 76  130/  9/ 12 1019.9R
CAPE HENRY VA    0000   69     170/  5/  7 1019.2R
CHESAPEAKE LGHT  2300   69     120/  6/  7 1021.1F
WILLOUBY STN VA  0000   69     120/  7/ 10 1018.9F
S CRANEY ISL VA  0000          190/  3/  5 1019.9S
CAPE HENRY BUOY  0000      76                N/A     2/13
1ST LANDING BUOY 0000   70     170/ 10/ 12 1020.0R
CAPE CHARLES BUO 0000      75                N/A     2/13   2/13
OFFSHORE WE BUOY 0000      75                N/A     2/ 8   2/ 8
64NM E OF VA BCH 0000   71 79   30/  8/ 12 1019.9F   2/ 7   2/ 7
DUCK PIER NC     0000   71 76   80/  6/  8 1019.4F
44100 DUCK FRF   0000      74                N/A     2/ 8
44056 DUCK FRF   0000                        N/A     2/ 8
OREGON INLET NC  0000   71 74   40/  7/  9 1020.0S
HATTERAS NC      0000   72 77   60/  6/ 10 1020.2R
DIAMOND SHLS NC  0000   73     360/ 10/ 14 1019.4F   3/ 8   3/ 8
CAPE LOOKOUT NC  2300   74      60/  7/  9 1019.6F
$$


USA.gov is the U.S. government's official web portal to all federal, state and local government web resources and services.